Weather History for Pensacola NAS, FL

Change the Weather History Date:

Tuesday, March 27, 2012

  Actual Average Record
Temperature  
Mean Temperature 66 °F -  
Max Temperature 78 °F 69 °F 80 °F (2011)
Min Temperature 55 °F 51 °F 34 °F (2013)
Cooling Degree Days 2    
Growing Degree Days 16 (Base 50)    
Moisture  
Dew Point 60 °F    
Average Humidity 88    
Maximum Humidity 100    
Minimum Humidity 58    
Precipitation  
Precipitation 0.00 in - - ()
Sea Level Pressure  
Sea Level Pressure 30.10 in    
Wind  
Wind Speed 3 mph (SSE)    
Max Wind Speed 13 mph    
Max Gust Speed -    
Visibility 7 miles    
Events Rain    
Averages and records for this station are not official NWS values.
T = Trace of Precipitation, MM = Missing Value Source: NWS Daily Summary

Daily Weather History Graph

Daily Weather History Graph

Search for Another Location

Airport:

Trip Planner

Search our weather history database for the weather conditions in past years. The results will help you decide how hot, cold, wet, or windy it might be!

Date:

Astronomy

Mar. 27, 2012 Rise Set
Actual Time 6:43 AM CDT 7:05 PM CDT
Civil Twilight 6:19 AM CDT 7:29 PM CDT
Nautical Twilight 5:51 AM CDT 7:57 PM CDT
Astronomical Twilight 5:23 AM CDT 8:26 PM CDT
Moon 9:34 AM CDT (3/27) 11:46 PM CDT (3/27)
Length of Visible Light 13h 09m
Length of Day
12h 21m
Waxing Crescent, 22% of the Moon is Illuminated
Mar 27
Waxing Crescent
Mar 30
First Quarter
Apr 6
Full
Apr 13
Last Quarter
Apr 21
New

Hourly Weather History & Observations

Time (CDT) Temp. Dew Point Humidity Pressure Visibility Wind Dir Wind Speed Gust Speed Precip Events Conditions
12:56 AM 57.9 °F 57.0 °F 97% 30.04 in 7.0 mi NW 3.5 mph - 0.00 in   Clear
1:56 AM 57.9 °F 57.0 °F 97% 30.04 in 7.0 mi SW 4.6 mph - 0.00 in Rain Light Rain
2:56 AM 57.0 °F 57.0 °F 100% 30.03 in 9.0 mi Calm Calm - 0.00 in   Clear
3:56 AM 55.9 °F 55.0 °F 97% 30.03 in 4.0 mi Calm Calm - 0.00 in   Clear
4:53 AM 57.2 °F 55.4 °F 94% 30.03 in 1.5 mi Calm Calm - 0.00 in   Clear
4:56 AM 57.0 °F 57.0 °F 100% 30.04 in 1.0 mi Calm Calm - 0.00 in   Clear
5:05 AM 55.4 °F 55.4 °F 100% 30.04 in 3.0 mi Calm Calm - N/A   Clear
5:12 AM 55.4 °F 55.4 °F 100% 30.04 in 5.0 mi Calm Calm - N/A   Partly Cloudy
5:15 AM 55.4 °F 55.4 °F 100% 30.04 in 1.8 mi Calm Calm - N/A   Partly Cloudy
5:29 AM 57.2 °F 57.2 °F 100% 30.05 in 3.0 mi NNW 3.5 mph - 0.00 in Rain Light Rain
5:56 AM 55.9 °F 55.0 °F 97% 30.06 in 7.0 mi Calm Calm - N/A   Clear
6:56 AM 57.0 °F 57.0 °F 100% 30.08 in 7.0 mi NNW 3.5 mph - N/A   Partly Cloudy
7:56 AM 63.0 °F 60.1 °F 90% 30.10 in 10.0 mi NNW 3.5 mph - N/A   Partly Cloudy
8:56 AM 69.1 °F 61.0 °F 75% 30.12 in 10.0 mi NNE 3.5 mph - N/A   Partly Cloudy
9:56 AM 73.9 °F 60.1 °F 62% 30.14 in 10.0 mi East 4.6 mph - N/A   Scattered Clouds
10:56 AM 75.9 °F 61.0 °F 60% 30.15 in 10.0 mi ESE 8.1 mph - N/A   Partly Cloudy
11:56 AM 75.9 °F 63.0 °F 64% 30.15 in 10.0 mi ESE 6.9 mph - N/A   Partly Cloudy
12:56 PM 78.1 °F 64.0 °F 62% 30.14 in 10.0 mi SE 9.2 mph - N/A   Scattered Clouds
1:56 PM 78.1 °F 62.1 °F 58% 30.14 in 10.0 mi SE 9.2 mph - N/A   Scattered Clouds
2:56 PM 75.9 °F 66.9 °F 74% 30.13 in 10.0 mi SSE 10.4 mph - N/A   Scattered Clouds
3:56 PM 75.0 °F 66.9 °F 76% 30.13 in 10.0 mi South 12.7 mph - N/A   Scattered Clouds
4:56 PM 75.0 °F 64.9 °F 71% 30.13 in 10.0 mi South 11.5 mph - N/A   Scattered Clouds
5:56 PM 73.9 °F 66.0 °F 76% 30.13 in 10.0 mi SSW 10.4 mph - N/A   Scattered Clouds
6:56 PM 70.0 °F 66.0 °F 87% 30.13 in 10.0 mi SSW 5.8 mph - N/A   Partly Cloudy
7:56 PM 68.0 °F 64.9 °F 90% 30.14 in 10.0 mi SW 3.5 mph - N/A   Partly Cloudy
8:56 PM 64.0 °F 63.0 °F 96% 30.16 in 10.0 mi Calm Calm - N/A   Clear
9:56 PM 64.0 °F 63.0 °F 96% 30.17 in 10.0 mi Calm Calm - N/A   Clear
10:56 PM 62.1 °F 62.1 °F 100% 30.17 in 10.0 mi Calm Calm - N/A   Clear
11:39 PM 62.6 °F 62.6 °F 100% 30.16 in 1.5 mi Calm Calm - 0.00 in   Clear
11:49 PM 60.8 °F 60.8 °F 100% 30.16 in 3.0 mi Calm Calm - 0.00 in   Clear
11:56 PM 62.1 °F 61.0 °F 96% 30.16 in 7.0 mi Calm Calm - 0.00 in   Clear